This demonstration page uses our WeatherBlox Daily Observations layout. Learn more.

Left ArrowRight Arrow

47.50024, -111.30081

Hourly Observations for April 10, 2019

Temp ( °F °C ) Dew Point ( °F °C ) Humidity (%) Winds ( mph kmh ) Pressure ( in mb ) Visibility ( mi km ) Precip ( " mm )
12:34 am 00:34 Cloudy with Light Rain 36 2.2 36 2.2 100 100 E 13 20 29.93 1013 10 16 0.03 0.76
12:53 am 00:53 Cloudy with Light Rain 36 2.2 35 1.7 97 97 E 17 28 29.93 1013 10 16 0.03 0.76
1:34 am 01:34 Cloudy with Light Rain 36 2.2 36 2.2 100 100 E 9 15 29.94 1014 7 11 0.01 0.25
1:53 am 01:53 Cloudy with Light Rain 36 2.2 36 2.2 100 100 ESE 15 24 29.94 1014 4 6 0.02 0.51
2:01 am 02:01 Cloudy with Light Rain 36 2.2 36 2.2 100 100 SE 15 24 29.95 1014 4 6 0.00 0.03
2:53 am 02:53 Cloudy with Light Rain 36 2.2 35 1.7 97 97 E 10 17 29.94 1014 10 16 0.03 0.76
3:53 am 03:53 Cloudy with Light Rain 36 2.2 36 2.2 100 100 NE 9 15 29.94 1014 10 16 0.01 0.25
4:03 am 04:03 Cloudy with Light Rain 35 1.7 35 1.7 100 100 ENE 15 24 29.96 1014 10 16 0.00 0.03
4:15 am 04:15 Cloudy with Light Rain 35 1.7 35 1.7 100 100 ENE 16 26 29.97 1015 8 13 0.00 0.03
4:53 am 04:53 Cloudy with Light Rain 35 1.7 35 1.7 100 100 ENE 16 26 29.96 1015 10 16 0.01 0.25
5:11 am 05:11 Cloudy with Light Rain 34 1.1 34 1.1 100 100 E 14 22 29.99 1016 5 8 0.00 0.03
5:49 am 05:49 Cloudy with Light Snow 34 1 34 1 100 100 ENE 15 24 30.01 1016 2 3 0.03 0.76
5:53 am 05:53 Cloudy with Light Snow 33 0.6 33 0.6 100 100 ENE 16 26 29.99 1016 2 3 0.03 0.76
5:58 am 05:58 Cloudy with Light Snow 33 0.6 33 0.6 100 100 ENE 14 22 30.01 1016 1 2 0.00 0.03
6:32 am 06:32 Cloudy with Light Snow 33 0.6 33 0.6 100 100 NE 17 28 30.02 1017 2 3 0.02 0.51
6:53 am 06:53 Cloudy with Light Snow 33 0.6 33 0.6 100 100 NE 16 26 30.02 1017 2 3 0.03 0.76
7:15 am 07:15 Cloudy with Light Snow 33 0.6 33 0.6 100 100 NE 17 28 30.04 1017 2 3 0.02 0.51
7:35 am 07:35 Cloudy with Light Snow 33 0.6 33 0.6 100 100 ENE 18 30 30.05 1018 2 2 0.03 0.76
7:53 am 07:53 Cloudy with Light Snow 33 0.6 33 0.6 100 100 NE 17 28 30.04 1017 1 2 0.04 1.02
8:04 am 08:04 Cloudy with Light Snow 32 0 32 0 100 100 ENE 17 28 30.07 1018 1 1 0.00 0.03
8:53 am 08:53 Cloudy with Light Snow 33 0.6 33 0.6 100 100 ENE 18 30 30.07 1018 3 5 0.02 0.51
9:44 am 09:44 Cloudy with Light Rain 36 2.2 36 2.2 100 100 ENE 16 26 30.07 1018 9 14 0.00 0.03
9:53 am 09:53 Cloudy with Light Rain 36 2.2 36 2.2 100 100 ENE 13 20 30.08 1019 7 11 0.00 0.03
10:17 am 10:17 Cloudy 37 2.8 37 2.8 100 100 ENE 13 20 30.06 1018 10 16 0.01 0.25
10:30 am 10:30 Cloudy with Light Rain 37 2.8 37 2.8 100 100 ENE 13 20 30.07 1018 10 16 0.01 0.25
10:38 am 10:38 Cloudy 38 3.3 37 2.8 97 97 ENE 13 20 30.06 1018 10 16 0.01 0.25
10:45 am 10:45 Cloudy 37 2.8 36 2.2 96 96 NE 13 20 30.07 1018 10 16 0.01 0.25
10:53 am 10:53 Cloudy 38 3.3 37 2.8 97 97 ENE 10 17 30.09 1019 10 16 0.01 0.25
11:24 am 11:24 Cloudy 40 4.4 33 0.6 77 77 E 22 35 30.06 1018 10 16 0.00 0.00
11:53 am 11:53 Cloudy with Light Rain 38 3.3 36 2.2 93 93 ENE 15 24 30.10 1019 10 16 0.00 0.03
12:49 pm 12:49 Cloudy 41 5 36 2 81 81 ENE 14 22 30.04 1017 10 16 0.00 0.03
12:53 pm 12:53 Cloudy 41 5 36 2.2 82 82 ENE 13 20 30.08 1019 10 16 0.00 0.03
1:06 pm 13:06 Cloudy 40 4.4 34 1.1 79 79 E 16 26 30.05 1017 10 16 0.00 0.00
1:53 pm 13:53 Cloudy with Light Rain 40 4.4 34 1.1 79 79 E 16 26 30.09 1019 10 16 0.00 0.03
2:19 pm 14:19 Cloudy with Light Rain 39 3.9 37 2.8 93 93 E 14 22 30.06 1018 10 16 0.00 0.03
2:49 pm 14:49 Cloudy 39 4 36 2 87 87 E 13 20 30.07 1018 10 16 0.00 0.03
2:53 pm 14:53 Cloudy 38 3.3 36 2.2 93 93 ESE 13 20 30.10 1019 10 16 0.00 0.03
3:07 pm 15:07 Cloudy 38 3.3 36 2.2 93 93 ESE 13 20 30.08 1019 10 16 0.00 0.00
3:19 pm 15:19 Cloudy with Light Rain 37 2.8 35 1.7 93 93 E 12 19 30.09 1019 6 10 0.00 0.03
3:32 pm 15:32 Cloudy 39 3.9 36 2.2 89 89 E 12 19 30.07 1018 10 16 0.00 0.03
3:41 pm 15:41 Cloudy 39 3.9 36 2.2 89 89 E 13 20 30.07 1018 10 16 0.00 0.03
3:53 pm 15:53 Cloudy 39 3.9 36 2.2 89 89 E 12 19 30.10 1019 10 16 0.00 0.03
4:03 pm 16:03 Cloudy 40 4.4 36 2.2 86 86 E 10 17 30.06 1018 10 16 0.00 0.00
4:14 pm 16:14 Cloudy 40 4.4 35 1.7 83 83 ESE 14 22 30.06 1018 10 16 0.00 0.00
4:53 pm 16:53 Cloudy 41 5 36 2.2 82 82 ESE 12 19 30.09 1019 10 16 0.00 0.00
5:53 pm 17:53 Cloudy 42 5.6 33 0.6 71 71 ESE 5 7 30.09 1019 10 16 0.00 0.00
6:10 pm 18:10 Cloudy 43 6.1 33 0.6 68 68 SE 5 7 30.03 1017 10 16 0.00 0.00
6:53 pm 18:53 Mostly Cloudy 42 5.6 34 1.1 73 73 SE 8 13 30.08 1019 10 16 0.00 0.00
7:53 pm 19:53 Mostly Cloudy 40 4.4 35 1.7 83 83 SE 7 11 30.09 1019 10 16 0.00 0.00
8:53 pm 20:53 Mostly Cloudy 38 3.3 34 1.1 86 86 SSW 8 13 30.09 1019 10 16 0.00 0.00
9:53 pm 21:53 Cloudy 36 2.2 34 1.1 93 93 SSW 6 9 30.08 1019 10 16 0.00 0.00
10:53 pm 22:53 Cloudy 34 1.1 33 0.6 97 97 SSW 7 11 30.07 1018 10 16 0.00 0.00
11:53 pm 23:53 Cloudy 36 2.2 35 1.7 97 97 W 6 9 30.06 1018 10 16 0.00 0.00

Powered by AerisWeather